Regional Weather Roundup
Issued by NWS Bismarck, ND

Home | Current Version | Previous Version | Text Only | Print | Product List | Glossary On
Versions: 1 2 3 4 5 6 7 8 9 10 11 12 13 14 15 16 17 18 19 20 21 22 23 24 25 26 27 28 29 30 31 32 33 34 35 36 37 38 39 40 41 42 43 44 45 46 47 48 49 50
000
ASUS43 KBIS 172302
RWRBIS

NWR BROADCAST TEXT
NATIONAL WEATHER SERVICE BISMARCK ND
500 PM CST SAT FEB 17 2018

NOTE: "FAIR" INDICATES FEW OR NO CLOUDS BELOW 12,000 FEET WITH NO
SIGNIFICANT WEATHER AND/OR OBSTRUCTIONS TO VISIBILITY.


CITY           SKY/WX    TMP DP  RH WIND       PRES   REMARKS
WILLISTON      FAIR      15   5  64 W7        29.94F WCI   5
MINOT          FAIR      17   4  56 W13       29.92S WCI   4
MINOT AFB      PTCLDY    15   5  65 W13       29.90F WCI   1
BISMARCK       FAIR      22  10  60 W13       29.97F WCI  10
DICKINSON      FAIR      17   7  64 W6        29.88F WCI   9
GARRISON         N/A     17   4  56 NW10      29.93S WCI   5
HETTINGER ARPT CLOUDY    17   9  70 NW6       29.92F WCI   9
JAMESTOWN      FAIR      23  10  57 W16       29.94S WCI  10
CARRINGTON     FAIR      21   9  58 W18G28    29.94R WCI   6
HAZEN            N/A     18   9  68 W9        29.96F WCI   6
LINTON           N/A     25  10  54 W9        29.99F WCI  15
MANDAN         FAIR      19  10  68 W14       29.95F WCI   6
OAKES            N/A     25   7  46 W15       29.99S WCI  12
RUGBY          FAIR      14   5  67 W18       29.90R WCI  -3
STANLEY        FAIR      12   5  73 W9G16     29.92R WCI   0
TIOGA          FAIR      10   5  79 MISG      29.91S
WATFORD CITY   FAIR      16   7  67 W10       29.93R WCI   3
$$

CITY           SKY/WX    TMP DP  RH WIND       PRES   REMARKS
GRAND FORKS    MOCLDY    23  11  60 W18       29.94F WCI   9
GRAND FORKS AF FAIR      21   8  57 NW13G21   29.93F WCI   8
DEVILS LAKE    FLURRIES  18  11  74 NW18      29.89F WCI   2
FARGO          FAIR      23  10  57 W10       29.99R WCI  12
CANDO          FAIR      16   7  67 W18       29.90S WCI  -1
CAVALIER         N/A     16   5  62 NW10G18   29.92S WCI   3
GRAFTON        FAIR      19   9  63 NW20      29.95S WCI   4
GWINNER          N/A     27   7  43 NW13      29.98F WCI  16
LANGDON        FAIR      12   3  67 NW16      29.86S WCI  -4
ROLLA          MOCLDY    10   5  79 N15       29.85S WCI  -6
WALHALLA       FAIR      16   0  48 NW20G26   29.92R WCI  -1
$$

CITY           SKY/WX    TMP DP  RH WIND       PRES   REMARKS
ABERDEEN       CLEAR     30  13  49 W12       30.01F
MOBRIDGE       SUNNY     23  12  62 NW8       29.97F WCI  14
BUFFALO          N/A     20  14  77 E7        29.80F WCI  11
RAPID CITY     CLOUDY    26  19  74 E8        29.89F WCI  18
GLASGOW        CLOUDY    14   5  67 SE3       29.89S
SIDNEY         CLOUDY    19   7  59 NW5       29.93F WCI  12
WOLF POINT     CLOUDY    16   8  71 CALM      29.92F
GLENDIVE       CLOUDY    17  11  77 S8        29.90F WCI   7
MILES CITY     LGT SNOW  19  14  81 NE7       29.85F WCI  10
BAKER          CLOUDY    16  12  84 E3        29.87F
$$

CITY           SKY/WX    TMP DP  RH WIND       PRES   REMARKS
BILLINGS       CLOUDY    21  18  88 NE10      29.69F WCI  10
GREAT FALLS    LGT SNOW  20  17  88 E14       29.54F FOG     WCI   7
$$





USA.gov is the U.S. government's official web portal to all federal, state and local government web resources and services.